Regional Weather Roundup
Issued by NWS

Home | Current Version | Previous Version | Text Only | Print | Product List | Glossary On
Versions: 1 2 3 4 5 6 7 8 9 10 11 12 13 14 15 16 17 18 19 20 21 22 23 24 25 26 27 28 29 30 31 32 33 34 35 36 37 38 39 40 41 42 43 44 45 46 47 48 49 50
811
ASUS43 KMPX 232310
RWRMN
WEATHER ROUNDUP FOR MINNESOTA
NATIONAL WEATHER SERVICE TWIN CITIES/CHANHASSEN MN
600 PM CDT MON APR 23 2018


NOTE: "FAIR" INDICATES FEW OR NO CLOUDS BELOW 12,000 FEET WITH NO
SIGNIFICANT WEATHER AND/OR OBSTRUCTIONS TO VISIBILITY. N/A MEANS
CURRENT SKY AND/OR WEATHER CONDITIONS ARE NOT AVAILABLE.

MNZ060>063-068>070-240000-
   Twin Cities Metro

CITY           SKY/WX    TMP DP  RH WIND       PRES   REMARKS
TWIN CITIES    FAIR      68  36  30 SE3       30.12F
ST PAUL        FAIR      69  33  26 W5        30.12F
CRYSTAL        FAIR      68  35  29 VRB3      30.12S
BLAINE         MOSUNNY   70  36  28 NW5       30.12F
LAKEVILLE      FAIR      66  39  37 W5        30.13S
EDEN PRAIRIE   FAIR      68  38  33 CALM      30.12F
SOUTH ST PAUL  FAIR      69  33  27 CALM      30.12S
LAKE ELMO      FAIR      68  36  30 CALM      30.13S
$$
MNZ001>005-007-008-013>017-022>024-027-028-240000-
   Northwest Minnesota

CITY           SKY/WX    TMP DP  RH WIND       PRES   REMARKS
BEMIDJI        FAIR      64  32  30 NW10G16   30.13S
HALLOCK        FAIR      63  30  29 NW5       30.15F
ROSEAU         FAIR      61  36  39 NW9       30.14S
WARROAD        FAIR      61  30  31 NW10G17   30.14S
THIEF RVR FALL FAIR      61  34  36 NW13      30.16F
CROOKSTON      FAIR      61  37  41 N10       30.17S
FOSSTON        FAIR      64  36  34 W7        30.16S
DETROIT LAKES  FAIR      63  36  36 N8        30.15R
MOORHEAD       FAIR      64  37  36 N12       30.15S
PARK RAPIDS    FAIR      68  36  30 NW7       30.11S
MAHNOMEN       FAIR      64  34  33 N9        30.14S
$$
MNZ006-009>011-018-025>026-240000-
   North Central Minnesota

CITY           SKY/WX    TMP DP  RH WIND       PRES   REMARKS
BAUDETTE       FAIR      59  29  31 N14       30.13S
FLAG ISLAND    FAIR      50  28  43 CALM      30.12S
INTL FALLS     FAIR      62  32  32 NW14      30.11S
WASKISH        FAIR      55  34  44 W7        30.13S
BIG FORK       FAIR      66  30  26 W6        30.11S
LONGVILLE      PTSUNNY   66  32  28 NW6       30.11S
GRAND RAPIDS   FAIR      66  34  30 N14G22    30.12F
CRANE LAKE     FAIR      61  27  27 N3        30.12R
ORR            FAIR      66  27  22 NW6       30.07S
COOK           FAIR      66  32  28 W13       30.10S
WALKER         FAIR      66  32  28 NW12G17   30.11S
$$
MNZ012-019>021-037-240000-
   Northeast Minnesota

CITY           SKY/WX    TMP DP  RH WIND       PRES   REMARKS
DULUTH         PTSUNNY   65  39  38 W12       30.10S
ELY            FAIR      63  28  27 W6        30.09S
HIBBING        FAIR      65  31  28 NW10      30.10S
EVELETH        FAIR      65  33  30 W9        30.11S
DULUTH HARBOR  PTSUNNY   66  37  34 SW8       30.10S
TWO HARBORS    FAIR      68  43  40 S12G17    30.08S
SILVER BAY     FAIR      63  36  36 S12G17    30.07S
GRAND MARAIS     N/A     42  34  73 CALM      30.10S
G MARAIS ARPRT FAIR      57  28  33 S5        30.11S
$$
MNZ029>031-032-039>041-046>048-054>057-064-240000-
   West Central Minnesota

CITY           SKY/WX    TMP DP  RH WIND       PRES   REMARKS
FERGUS FALLS   FAIR      66  39  37 W5        30.09S
WHEATON        MOSUNNY   68  37  32 NE6       30.13S
MORRIS         SUNNY     68  41  37 CALM      30.11F
ALEXANDRIA     FAIR      68  36  30 CALM      30.13F
ELBOW LAKE     FAIR      64  40  41 N3        30.13S
WADENA         FAIR      64  39  39 NW3       30.12S
GLENWOOD       FAIR      66  36  32 W5        30.14S
APPLETON       SUNNY     70  34  26 CALM      30.12S
BENSON         SUNNY     70  37  30 N5        30.14S
ORTONVILLE     MOSUNNY   66  39  37 E3        30.11S
MADISON        SUNNY     70  43  37 S5        30.12S
WILLMAR        FAIR      64  39  39 NW5       30.16S
$$
MNZ033>034-036-042>043-049>051-058-059-240000-
   Central Minnesota

CITY           SKY/WX    TMP DP  RH WIND       PRES   REMARKS
ST CLOUD       FAIR      68  37  32 N7        30.12S
SAUK CENTRE    FAIR      66  35  31 W6        30.12F
PAYNESVILLE    FAIR      67  37  32 CALM      30.13S
AITKIN         PTSUNNY   66  37  34 S6        30.10S
PINE RIVER     FAIR      64  37  36 NW3       30.13S
BRAINERD       FAIR      69  36  29 NW6       30.11F
STAPLES        FAIR      66  34  30 NW3       30.12S
LONG PRAIRIE   FAIR      64  36  34 CALM      30.13S
LITTLE FALLS   FAIR      66  25  20 SW5       30.13S
LITCHFIELD     FAIR      68  37  32 CALM      30.13F
BUFFALO        FAIR      66  37  33 CALM      30.14S
MAPLE LAKE     FAIR      68  41  37 NW5       30.14S
HUTCHINSON     FAIR      67  43  42 CALM      30.15S
$$
MNZ037-044-045-052-053-240000-
   East Central Minnesota

CITY           SKY/WX    TMP DP  RH WIND       PRES   REMARKS
PRINCETON      FAIR      70  37  30 CALM      30.13S
MORA           FAIR      64  37  36 W3        30.14S
CAMBRIDGE      FAIR      70  45  40 W5        30.13S
RUSH CITY      FAIR      65  38  35 SW3       30.13S
MOOSE LAKE     FAIR      68  37  32 SW8       30.09F
HINCKLEY       FAIR      68  39  34 SW5       30.12S
CLOQUET        FAIR      66  30  26 SW7       30.11S
MCGREGOR       PTSUNNY   63  37  39 S7        30.11S
$$
MNZ071>073-080-081-089-090-097-098-240000-
   Southwest Minnesota

CITY           SKY/WX    TMP DP  RH WIND       PRES   REMARKS
MONTEVIDEO     SUNNY     70  37  30 CALM      30.13F
GRANITE FALLS  SUNNY     68  39  34 CALM      30.15S
CANBY          SUNNY     67  35  30 S3        30.13F
MARSHALL       SUNNY     67  37  33 SW6       30.14S
REDWOOD FALLS  SUNNY     66  38  35 S9        30.13F
OLIVIA         SUNNY     68  37  32 W5        30.13S
PIPESTONE      SUNNY    N/A N/A N/A SE7       30.13S
WINDOM         SUNNY     64  36  34 N3        30.15S
WORTHINGTON    SUNNY     63  42  46 NE8       30.15S
JACKSON        SUNNY     61  37  41 SE7       30.15S
TRACY          SUNNY     65  38  37 CALM      30.14S
SLAYTON        SUNNY     63  41  44 NE5       30.15S
$$
MNZ065>067-074>077-082>085-091>093-240000-
   South Central Minnesota

CITY           SKY/WX    TMP DP  RH WIND       PRES   REMARKS
MANKATO        FAIR      67  40  37 CALM      30.14F
NEW ULM        SUNNY     64  37  36 CALM      30.13F
ST JAMES       SUNNY     63  39  42 CALM      30.15F
FAIRMONT       SUNNY     62  39  42 CALM      30.15F
GLENCOE        FAIR      67  41  39 CALM      30.13S
OWATONNA       FAIR      66  37  34 CALM      30.13F
WASECA         FAIR      64  36  34 CALM      30.14F
ALBERT LEA     FAIR      64  36  34 NE6       30.13F
$$
MNZ078>079-086>088-094>096-240000-
   Southeast Minnesota

CITY           SKY/WX    TMP DP  RH WIND       PRES   REMARKS
ROCHESTER      FAIR      65  37  35 E7        30.13F
RED WING       FAIR      70  23  17 SE3       30.11S
STANTON        FAIR      68  36  30 NW5       30.12S
DODGE CENTER   FAIR      64  36  34 CALM      30.14S
WINONA         FAIR      70  28  21 CALM      30.09F
AUSTIN         FAIR      64  37  36 N5        30.12F
PRESTON        FAIR      65  29  26 NE5       30.13F
$$
ABBREVIATIONS USED IN REMARKS
   TC - TEMPERATURES IN CELSIUS
  WCI - WIND CHILL INDEX
   HX - HEAT INDEX
  VSB - VISIBILITY
$$




USA.gov is the U.S. government's official web portal to all federal, state and local government web resources and services.